Change the Weather History Date:

Sunday, March 2, 2014

  Actual Average Record
Temperature  
Mean Temperature 65 °F -  
Max Temperature 71 °F 63 °F 77 °F (2001)
Min Temperature 57 °F 49 °F 41 °F (2004)
Growing Degree Days 15 (Base 50)    
Moisture  
Dew Point 52 °F    
Average Humidity 60    
Maximum Humidity 72    
Minimum Humidity 36    
Precipitation  
Precipitation 0.00 in - - ()
Sea Level Pressure  
Sea Level Pressure 30.00 in    
Wind  
Wind Speed 13 mph ()    
Max Wind Speed 20 mph    
Max Gust Speed 47 mph    
Visibility 6.2 miles    
Events      
Averages and records for this station are not official NWS values.
T = Trace of Precipitation, MM = Missing Value Source: Averaged Metar Reports

Daily Weather History Graph

Daily Weather History Graph

Search for Another Location

Airport or City:

Trip Planner

Search our weather history database for the weather conditions in past years. The results will help you decide how hot, cold, wet, or windy it might be!

Date:

Astronomy

Mar. 02, 2014 Rise Set
Actual Time 6:43 AM WET 6:11 PM WET
Civil Twilight 6:18 AM WET 6:37 PM WET
Nautical Twilight 5:49 AM WET 7:06 PM WET
Astronomical Twilight 5:19 AM WET 7:35 PM WET
Moon 7:10 AM WET (3/2) 7:46 PM WET (3/2)
Length of Visible Light 12h 18m
Length of Day
11h 27m
New Moon, 2% of the Moon is Illuminated
Mar 2
New Moon
Mar 8
First Quarter
Mar 16
Full
Mar 24
Last Quarter
Mar 30
New

Hourly Weather History & Observations

Time (WET) Temp. Dew Point Humidity Pressure Visibility Wind Dir Wind Speed Gust Speed Precip Events Conditions
12:00 AM 69 °F 48 °F 36% 29.92 in 9 mi West 9.2 mph - -   Mostly Cloudy
12:00 AM 69.8 °F 48.2 °F 46% 29.92 in 6.2 mi West 9.2 mph - N/A   Mostly Cloudy
3:00 AM 65 °F 52 °F 54% 29.88 in 5 mi NW 18.4 mph - -   Clear
6:00 AM 64 °F 52 °F 57% 29.94 in 9 mi WNW 18.4 mph - -   Mostly Cloudy
6:00 AM 64.4 °F 51.8 °F 64% 29.92 in 6.2 mi WNW 18.4 mph 47.2 mph N/A   Scattered Clouds
7:00 AM 62.6 °F 51.8 °F 68% 29.95 in 6.2 mi WNW 16.1 mph 33.4 mph N/A   Scattered Clouds
8:00 AM 62.6 °F 51.8 °F 68% 29.98 in 5.0 mi WNW 18.4 mph 35.7 mph N/A   Scattered Clouds
9:00 AM 63 °F 52 °F 58% 30.02 in 5 mi WNW 18.4 mph - -   Mostly Cloudy
9:00 AM 62.6 °F 51.8 °F 68% 30.01 in 5.0 mi WNW 18.4 mph 31.1 mph N/A   Scattered Clouds
10:00 AM 64.4 °F 51.8 °F 64% 30.04 in 5.0 mi West 16.1 mph - N/A   Scattered Clouds
11:00 AM 68.0 °F 53.6 °F 60% 30.04 in 6.2 mi WNW 16.1 mph - N/A   Scattered Clouds
12:00 PM 66 °F 52 °F 51% 30.04 in 6 mi WNW 13.8 mph - -   Partly Cloudy
12:00 PM 66.2 °F 51.8 °F 60% 30.04 in 6.2 mi WNW 13.8 mph 33.4 mph N/A   Partly Cloudy
1:00 PM 68.0 °F 53.6 °F 60% 30.04 in 6.2 mi WNW 18.4 mph 31.1 mph N/A   Partly Cloudy
1:55 PM 69.8 °F 53.6 °F 56% 30.01 in 6.2 mi WNW 19.6 mph 33.4 mph N/A   Scattered Clouds
2:00 PM 69.8 °F 53.6 °F 56% 30.01 in 6.2 mi WNW 19.6 mph 33.4 mph N/A   Scattered Clouds
3:00 PM 70 °F 53 °F 45% 30.00 in 6 mi WNW 18.4 mph - -   Partly Cloudy
3:00 PM 69.8 °F 53.6 °F 56% 29.98 in 6.2 mi WNW 18.4 mph 33.4 mph N/A   Scattered Clouds
4:00 PM 69.8 °F 53.6 °F 56% 29.98 in 6.2 mi West 18.4 mph 31.1 mph N/A   Partly Cloudy
5:00 PM 68.0 °F 53.6 °F 60% 30.01 in 6.2 mi WNW 13.8 mph - N/A   Scattered Clouds
6:00 PM 65 °F 53 °F 56% 30.04 in 6 mi WNW 16.1 mph - -   Partly Cloudy
6:00 PM 64.4 °F 53.6 °F 68% 30.04 in 6.2 mi WNW 16.1 mph - N/A   Scattered Clouds
7:00 PM 64.4 °F 53.6 °F 68% 30.04 in 6.2 mi WNW 16.1 mph - N/A   Scattered Clouds
7:41 PM 64.4 °F 53.6 °F 68% 30.04 in 6.2 mi West 4.6 mph - N/A   Scattered Clouds
8:00 PM 64.4 °F 53.6 °F 68% 30.04 in 6.2 mi West 4.6 mph - N/A   Scattered Clouds
9:00 PM 62 °F 52 °F 61% 30.05 in 6 mi SW 4.6 mph - -   Scattered Clouds
9:00 PM 62.6 °F 51.8 °F 68% 30.04 in 6.2 mi SW 4.6 mph - N/A   Scattered Clouds
10:00 PM 59.0 °F 50.0 °F 72% 30.04 in 6.2 mi Variable 2.3 mph - N/A   Scattered Clouds
11:00 PM 57.2 °F 48.2 °F 72% 30.04 in 6.2 mi Variable 2.3 mph - N/A   Scattered Clouds